TimeMST,TemperatureF,Dew PointF,Humidity,Sea Level PressureIn,VisibilityMPH,Wind Direction,Wind SpeedMPH,Gust SpeedMPH,PrecipitationIn,Events,Conditions,WindDirDegrees,DateUTC
12:55 AM,64.8,42.6,45,30.01,10.0,NNW,3.5,-,N/A,,Clear,330,2012-10-14 07:55:00
1:55 AM,62.4,44.1,51,30.01,10.0,NNW,5.8,-,N/A,,Clear,330,2012-10-14 08:55:00
2:55 AM,61.3,43.0,51,30.00,10.0,North,4.6,-,N/A,,Clear,350,2012-10-14 09:55:00
3:55 AM,61.3,42.3,50,30.00,10.0,NNE,3.5,-,N/A,,Clear,20,2012-10-14 10:55:00
4:55 AM,58.8,43.3,56,30.01,10.0,Calm,Calm,-,N/A,,Clear,0,2012-10-14 11:55:00
5:55 AM,57.6,41.7,56,30.03,10.0,NNW,4.6,-,N/A,,Clear,340,2012-10-14 12:55:00
6:55 AM,58.5,44.4,60,30.03,10.0,NNE,3.5,-,N/A,,Clear,30,2012-10-14 13:55:00
7:55 AM,63.3,45.1,52,30.05,10.0,NW,5.8,-,N/A,,Clear,320,2012-10-14 14:55:00
8:55 AM,71.2,45.7,40,30.06,10.0,Calm,Calm,-,N/A,,Clear,0,2012-10-14 15:55:00
9:55 AM,76.8,45.0,32,30.05,10.0,Calm,Calm,-,N/A,,Clear,0,2012-10-14 16:55:00
10:55 AM,81.1,43.7,27,30.03,10.0,Calm,Calm,-,N/A,,Clear,0,2012-10-14 17:55:00
11:55 AM,83.5,44.6,25,30.00,10.0,Calm,Calm,-,N/A,,Clear,0,2012-10-14 18:55:00
12:55 PM,87.1,43.2,21,29.97,10.0,Calm,Calm,-,N/A,,Clear,0,2012-10-14 19:55:00
1:55 PM,89.8,41.5,19,29.93,10.0,Calm,Calm,-,N/A,,Clear,0,2012-10-14 20:55:00
2:55 PM,91.4,39.9,17,29.90,10.0,Calm,Calm,-,N/A,,Clear,0,2012-10-14 21:55:00
3:55 PM,92.1,38.8,15,29.88,10.0,SE,6.9,-,N/A,,Clear,140,2012-10-14 22:55:00
4:55 PM,91.6,36.7,14,29.88,10.0,ESE,3.5,-,N/A,,Clear,120,2012-10-14 23:55:00
5:55 PM,86.9,43.2,22,29.88,10.0,SW,9.2,-,N/A,,Clear,230,2012-10-15 00:55:00
6:55 PM,81.9,42.3,25,29.89,10.0,SW,5.8,-,N/A,,Clear,230,2012-10-15 01:55:00
7:55 PM,77.4,41.7,28,29.90,10.0,West,3.5,-,N/A,,Clear,280,2012-10-15 02:55:00
8:55 PM,75.2,39.9,28,29.90,10.0,NNW,9.2,-,N/A,,Clear,330,2012-10-15 03:55:00
9:55 PM,72.3,41.2,32,29.91,10.0,North,4.6,-,N/A,,Clear,360,2012-10-15 04:55:00
10:55 PM,73.6,39.4,29,29.90,10.0,NNW,12.7,-,N/A,,Clear,340,2012-10-15 05:55:00
11:55 PM,71.8,38.7,30,29.90,10.0,NNW,8.1,-,N/A,,Clear,340,2012-10-15 06:55:00